Regional Weather Roundup
Issued by NWS

Home | Current Version | Previous Version | Graphics & Text | Print | Product List | Glossary Off
Versions: 1 2 3 4 5 6 7 8 9 10 11 12 13 14 15 16 17 18 19 20 21 22 23 24 25 26 27 28 29 30 31 32 33 34 35 36 37 38 39 40 41 42 43 44 45 46 47 48 49 50

000
ASUS43 KMPX 220810
RWRMN
WEATHER ROUNDUP FOR MINNESOTA
NATIONAL WEATHER SERVICE TWIN CITIES/CHANHASSEN MN
300 AM CDT TUE MAY 22 2018


NOTE: "FAIR" INDICATES FEW OR NO CLOUDS BELOW 12,000 FEET WITH NO
SIGNIFICANT WEATHER AND/OR OBSTRUCTIONS TO VISIBILITY. N/A MEANS
CURRENT SKY AND/OR WEATHER CONDITIONS ARE NOT AVAILABLE.

MNZ060>063-068>070-220900-
   Twin Cities Metro

CITY           SKY/WX    TMP DP  RH WIND       PRES   REMARKS
TWIN CITIES    CLOUDY    59  55  87 S3        30.02R
ST PAUL        CLOUDY    58  54  86 S3        30.02S
CRYSTAL        CLOUDY    59  53  80 S5        30.01R
BLAINE         FAIR      61  54  77 S3        30.01S
LAKEVILLE      CLOUDY    55  54  94 CALM      30.02S
EDEN PRAIRIE   CLOUDY    58  53  84 S5        30.01R
SOUTH ST PAUL  MOCLDY    58  54  85 CALM      30.02R FOG
LAKE ELMO      CLOUDY    57  55  94 CALM      30.03S
$$
MNZ001>005-007-008-013>017-022>024-027-028-220900-
   Northwest Minnesota

CITY           SKY/WX    TMP DP  RH WIND       PRES   REMARKS
BEMIDJI        FAIR      46  43  89 CALM      30.00S
HALLOCK        FAIR      52  45  76 S8        29.94S
ROSEAU         FAIR      48  43  81 S8        29.96S
WARROAD        FAIR      52  45  76 SW6       29.97R
THIEF RVR FALL FAIR      51  49  92 S7        29.98S
CROOKSTON      FAIR      55  52  88 S8        29.98S
FOSSTON        FAIR      46  43  87 S5        30.00S
DETROIT LAKES  CLOUDY    54  50  87 SE3       30.01R
MOORHEAD       FAIR      54  52  94 S5        29.99S
PARK RAPIDS    CLOUDY    55  44  66 S5        30.00S
MAHNOMEN       FAIR      50  45  84 S5        29.99S
$$
MNZ006-009>011-018-025>026-220900-
   North Central Minnesota

CITY           SKY/WX    TMP DP  RH WIND       PRES   REMARKS
BAUDETTE       FAIR      45  43  93 CALM      29.98R
FLAG ISLAND    FAIR      57  43  58 SW13      29.93S
INTL FALLS     FAIR      43  40  89 S3        29.98S
WASKISH        FAIR      46  43  87 CALM      29.99S
BIG FORK       FAIR      43  39  87 CALM      30.01R
LONGVILLE      CLOUDY    54  46  76 CALM      30.00S
GRAND RAPIDS   CLOUDY    52  45  77 CALM      30.02S
CRANE LAKE     FAIR      39  36  87 CALM      30.02S
ORR            FAIR      46  39  76 CALM      29.98S
COOK           MOCLDY    45  39  81 CALM      30.01S
WALKER         CLOUDY    47  44  89 CALM      30.01R
$$
MNZ012-019>021-037-220900-
   Northeast Minnesota

CITY           SKY/WX    TMP DP  RH WIND       PRES   REMARKS
DULUTH         CLOUDY    56  44  64 VRB3      30.01R
ELY            CLOUDY    45  37  76 CALM      30.01S
HIBBING        CLOUDY    44  40  85 CALM      30.00F
EVELETH        MOCLDY    54  45  71 CALM      30.01S
DULUTH HARBOR  CLOUDY    54  39  58 CALM      30.01S
TWO HARBORS    CLOUDY    55  43  62 CALM      29.99S
SILVER BAY     CLOUDY    50  41  71 CALM      29.98F
GRAND MARAIS     N/A     42  34  73 CALM      29.99S
G MARAIS ARPRT FAIR      43  28  56 W5        30.01S
$$
MNZ029>031-032-039>041-046>048-054>057-064-220900-
   West Central Minnesota

CITY           SKY/WX    TMP DP  RH WIND       PRES   REMARKS
FERGUS FALLS   CLOUDY    57  52  82 S5        29.96F
WHEATON        CLOUDY    57  54  88 SE3       30.00F FOG
MORRIS         CLOUDY    57  57 100 E7        29.98F FOG
ALEXANDRIA     CLOUDY    57  47  69 S6        30.01S
ELBOW LAKE     CLOUDY    56  53  89 E5        30.00S
WADENA         CLOUDY    54  45  71 CALM      30.00S
GLENWOOD       FAIR      52  50  93 CALM      30.01F
APPLETON       CLOUDY    59  55  88 E5        29.99S FOG
BENSON         PTCLDY    54  52  94 SE5       30.01F
ORTONVILLE       N/A     55  54  94 SE3       29.98F FOG
MADISON        MOCLDY    57  57 100 SE3       29.99S FOG
WILLMAR        FAIR      54  50  87 CALM      30.03S
$$
MNZ033>034-036-042>043-049>051-058-059-220900-
   Central Minnesota

CITY           SKY/WX    TMP DP  RH WIND       PRES   REMARKS
ST CLOUD       FAIR      48  47  96 CALM      30.01R
SAUK CENTRE    CLOUDY    51  49  94 CALM      30.01S
PAYNESVILLE    CLOUDY    55  52  89 CALM      30.02R
AITKIN         CLOUDY    50  48  93 CALM      30.00S
PINE RIVER     CLOUDY    52  45  76 CALM      30.04S
BRAINERD       CLOUDY    55  45  68 CALM      30.01F
STAPLES        CLOUDY    54  45  71 CALM      30.00F
LONG PRAIRIE   FAIR      50  46  87 CALM      30.02R
LITTLE FALLS   CLOUDY    54  50  87 CALM      30.01S
LITCHFIELD     CLOUDY    55  55 100 CALM      30.02R
BUFFALO        FAIR      51  48  87 CALM      30.02S
MAPLE LAKE       N/A     49  49  98 CALM      30.02S FOG
HUTCHINSON     CLOUDY    58  56  94 CALM      30.02S
$$
MNZ037-044-045-052-053-220900-
   East Central Minnesota

CITY           SKY/WX    TMP DP  RH WIND       PRES   REMARKS
PRINCETON      CLOUDY    55  50  82 CALM      30.02R
MORA           CLOUDY    50  46  87 CALM      30.03S
CAMBRIDGE      CLOUDY    61  50  67 CALM      30.02R
RUSH CITY      CLOUDY    58  53  84 CALM      30.02S
MOOSE LAKE     CLOUDY    52  45  76 CALM      30.00S
HINCKLEY       CLOUDY    54  52  94 CALM      30.01S
CLOQUET        CLOUDY    54  43  66 CALM      30.01S
MCGREGOR       CLOUDY    54  50  87 CALM      30.02S
$$
MNZ071>073-080-081-089-090-097-098-220900-
   Southwest Minnesota

CITY           SKY/WX    TMP DP  RH WIND       PRES   REMARKS
MONTEVIDEO     CLEAR     54  54 100 S5        30.00S FOG
GRANITE FALLS  FOG       56  56  99 SE3       30.02S VSB 1/4
CANBY          FOG       54  53  97 CALM      30.00S VSB 1/4
MARSHALL       CLEAR     53  52  96 SW6       30.00S
REDWOOD FALLS  FOG       55  55 100 CALM      30.00S VSB 1
OLIVIA         PTCLDY    54  52  94 CALM      30.00S
PIPESTONE      FOG       54  54 100 SE6       30.01R VSB 1/4
WINDOM         HAZE      54  39  58 CALM      30.01R VSB<1/4
WORTHINGTON    FOG       56  56 100 S5        30.02S VSB 1/4
JACKSON        CLOUDY    55  55 100 S3        30.02S FOG
TRACY          FOG       55  55 100 S6        30.00S VSB 1/2
SLAYTON        LGT RAIN  52  52 100 CALM      30.03R VSB 1/4
$$
MNZ065>067-074>077-082>085-091>093-220900-
   South Central Minnesota

CITY           SKY/WX    TMP DP  RH WIND       PRES   REMARKS
MANKATO        CLOUDY    58  55  90 E3        30.02S
NEW ULM        PTCLDY    59  57  94 CALM      30.00S FOG
ST JAMES       FOG       55  55 100 CALM      30.02S VSB 1/4
FAIRMONT       FOG       56  56 100 CALM      30.02R VSB 1/4
GLENCOE        CLOUDY    58  55  87 SE5       30.00S
FARIBAULT      CLOUDY    57  54  88 CALM      30.02S
OWATONNA       FAIR      55  54  94 CALM      30.01F
WASECA         CLOUDY    55  54  94 CALM      30.03R
ALBERT LEA     CLOUDY    55  54  94 CALM      30.01S FOG
$$
MNZ078>079-086>088-094>096-220900-
   Southeast Minnesota

CITY           SKY/WX    TMP DP  RH WIND       PRES   REMARKS
ROCHESTER      FOG       54  54 100 NW6       30.03S VSB 3/4
RED WING       CLOUDY    57  54  88 CALM      30.01S
STANTON        CLOUDY    57  54  88 SE3       30.01S
DODGE CENTER   FOG       54  54 100 N3        30.02S VSB 1/2
WINONA         CLOUDY    55  55 100 CALM      29.99R
AUSTIN         CLOUDY    55  54  94 CALM      30.01S FOG
PRESTON        FOG       54  53  96 CALM      30.02S VSB 3/4
$$
ABBREVIATIONS USED IN REMARKS
   TC - TEMPERATURES IN CELSIUS
  WCI - WIND CHILL INDEX
   HX - HEAT INDEX
  VSB - VISIBILITY
$$




USA.gov is the U.S. government's official web portal to all federal, state and local government web resources and services.